Showing default

HAWK-10C, 60575

Orbit data source: Space-Track

HAWK-10C, 60575 is a payload satellite owned by HawkEye 360 (US) in SSO that was launched on Fri, 16 Aug 2024 UTC via an FALCON 9 launch vehicle from the Air Force Western Test Range (AFWTR). Payload-class satellites include a variety of spacecraft equipped with specific instruments for various scientific and technological missions. These include communications satellites like Starlink; space stations such as the ISS; scientific satellites like the Hubble; Earth observation satellites from companies like Planet Labs, Umbra, and HawkEye 360; GPS; miniature CubeSats for education and research; and military/defense satellites.

Loading next visibility...
Identifier
60575, 2024-149DM
Orbit
SSO
Country
Flag of USUS
Related business
Manufacturer
UTIAS-SFL
Mission
Operational Commercial Sigint
Bus & Motor
HAWK2G, Unknown motor
Mass
31 kg wet, 30 kg dry
Launch date (UTC)
2024-08-16 (1 year ago)
Launch vehicle
FALCON 9
Launch site
Air Force Western Test Range (AFWTR)
Object type
Payload
Rocket body
Debris
Shape & HBR
Box + 2 Pan, 1.0 m
Radar Cross Section
0.240 m², Medium (>0.1 m² and < 1m²)

Expand to show TLE details & history
Last TLE update: 23 hours ago

TLE from 23 hours ago
0 HAWK-10C
1 60575U 24149DM  26034.15507070  .00002644  00000-0  24068-3 0  9992
2 60575  97.6864 111.3127 0004504 131.2445 228.9165 14.96022581 79944
Epoch: 2026-02-03T03:43Z
TLE epoch observation values (Epoch: 2026-02-03T03:43:18.108Z)
Latitude
-0.00002°
Longitude
-77.85281°
Altitude
584.311 km
Speed
7.567 km/s
True Right ascension
07h 25m 15s
True Declination
0° 00' 00"
Sunlit
Object was in full shadow at epoch
Visualization orbit readout
Latitude
Unknown
Longitude
Unknown
Altitude
Unknown
Speed
Unknown
Apparent Right ascension
Unknown
Apparent Declination
Unknown
Sunlit
N/A
Visualization observer readout
Local Sidereal Time
04:25:58
Azimuth
Unknown
Elevation
Unknown
Doppler factor
Unknown
Orbital elements
Apogee altitude
579.343 km
Perigee altitude
573.078 km
Semi-major axis
6,954.348 km
Eccentricity
0.00045
Inclination
97.6864°
RAAN
111.3127°
Arg. of periapsis
131.2445°
True anomaly
228.87761°
Mean anomaly
228.9165°
Eccentric anomaly
228.89705°
Mean motion
3.74247 °/min
Orbital period
96.19 mins
BSTAR
0.00024068
Loading maneuver chart data...
Computing Atmospheric mass density...
Loading historical data...
Loading historical data...
Loading historical data...
Loading historical data...
Loading historical data...
Loading historical data...
Loading historical data...

Documentation

Showing up to 5 results
|